This is the latest recevied weather packets stored in our database for station/object AB4PS. If no packets are shown the sender has not sent any weather packets the latest 1 day(s).
| Time | Temp. | Humidity | Pressure | Rain* | Wind** | Luminosity | Snow |
|---|---|---|---|---|---|---|---|
| 1778036374 | 20° C | 59% | 1016 hPa | 0 mm | - | 0 W/m² | - |
| 1778035768 | 20° C | 58% | 1016 hPa | 0 mm | - | 0 W/m² | - |
| 1778035465 | 20° C | 58% | 1016.2 hPa | 0 mm | - | 0 W/m² | - |
| 1778035161 | 20.56° C | 57% | 1016.2 hPa | 0 mm | - | 0 W/m² | - |
| 1778034858 | 20.56° C | 57% | 1016.3 hPa | 0 mm | - | 0 W/m² | - |
| 1778034252 | 20.56° C | 56% | 1016.3 hPa | 0 mm | - | 0 W/m² | - |
| 1778033950 | 20.56° C | 55% | 1016.5 hPa | 0 mm | - | 0 W/m² | - |
| 1778033042 | 21.11° C | 53% | 1016.4 hPa | 0 mm | - | 0 W/m² | - |
| 1778032739 | 21.11° C | 52% | 1016.3 hPa | 0 mm | - | 0 W/m² | - |
| 1778032436 | 21.11° C | 52% | 1016 hPa | 0 mm | - | 0 W/m² | - |
| 1778032133 | 21.67° C | 51% | 1015.9 hPa | 0 mm | - | 0 W/m² | - |
| 1778031830 | 21.67° C | 51% | 1016 hPa | 0 mm | - | 0 W/m² | - |
| 1778031526 | 21.67° C | 50% | 1015.7 hPa | 0 mm | - | 0 W/m² | - |
| 1778031224 | 22.22° C | 50% | 1015.8 hPa | 0 mm | - | 0 W/m² | - |
| 1778030920 | 22.22° C | 49% | 1015.6 hPa | 0 mm | - | 0 W/m² | - |
| 1778030011 | 22.22° C | 48% | 1015.4 hPa | 0 mm | - | 0 W/m² | - |
| 1778029709 | 22.78° C | 48% | 1015.5 hPa | 0 mm | - | 0 W/m² | - |
| 1778029103 | 22.78° C | 48% | 1014.8 hPa | 0 mm | - | 0 W/m² | - |
| 1778028800 | 22.78° C | 48% | 1014.9 hPa | 0 mm | - | 0 W/m² | - |
| 1778028496 | 22.78° C | 48% | 1014.6 hPa | 0 mm | - | 0 W/m² | - |
| 1778028194 | 22.78° C | 48% | 1014.7 hPa | 0 mm | - | 0 W/m² | - |
| 1778026979 | 23.89° C | 43% | 1014.7 hPa | 0 mm | - | 1 W/m² | - |
| 1778022740 | 27.22° C | 30% | 1014.6 hPa | 0 mm | - | 51 W/m² | - |
| 1778022134 | 27.22° C | 30% | 1014.4 hPa | 0 mm | - | 77 W/m² | - |
| 1778020921 | 28.89° C | 28% | 1014.5 hPa | 0 mm | - | 147 W/m² | - |
* Rain latest hour (hover to see other rain measurements)
** Current wind speed in m/s (hover to see current wind gust speed)